Location: 5810 Zion Rd, Cleves, OH 45002, USA
(39.1922°N, 84.7113°W)
Time: 03:01:37
(UTC-05:00)

Vanguard 3 - Pass Details

Date: 16 December 2019
Orbit: 507 x 3264 km, 33.4° (Epoch: 28 January)

Event Time Altitude Azimuth Distance (km) Brightness Sun altitude
Rises 10:56:56 0° 273° (W) 4,185 10.5 23.5°
Reaches altitude 10° 10:59:22 10° 268° (W) 3,503 10.3 23.7°
Maximum altitude 11:08:27 52° 195° (SSW) 2,439 10.5 24.3°
Drops below altitude 10° 11:23:52 10° 126° (SE) 5,729 12.4 25.3°
Sets 11:29:08 0° 122° (ESE) 7,002 12.6 25.6°
